Regional Weather Roundup
Issued by NWS

Home | Current Version | Previous Version | Text Only | Print | Product List | Glossary On
Versions: 1 2 3 4 5 6 7 8 9 10 11 12 13 14 15 16 17 18 19 20 21 22 23 24 25 26 27 28 29 30 31 32 33 34 35 36 37 38 39 40 41 42 43 44 45 46 47 48 49 50
044
ASUS45 KBOU 230307
RWRCO

WEATHER ROUNDUP FOR COLORADO
NATIONAL WEATHER SERVICE DENVER/BOULDER CO
900 PM MDT FRI JUL 22 2016

NOTE: "FAIR" INDICATES FEW OR NO CLOUDS BELOW 12000 FEET WITH NO
SIGNIFICANT WEATHER AND/OR OBSTRUCTIONS TO VISIBILITY.

COZ001>005-013-030-031-230400-
...NORTHWEST COLORADO...

CITY           SKY/WX    TMP DP  RH WIND       PRES   REMARKS
CRAIG          FAIR      69  46  43 E6        30.26F
HAYDEN         FAIR      66  45  45 S7        30.29F
MEEKER         FAIR      68  53  58 CALM      30.29S
MOUNT WERNER   NOT AVBL
STEAMBOAT SPGS FAIR      67  47  48 E6        30.33F
WALDEN         MOCLDY    68  43  40 SW14      30.39S
$$

COZ006>008-011-230400-
...WEST CENTRAL VALLEYS...

CITY           SKY/WX    TMP DP  RH WIND       PRES   REMARKS
GRAND JUNCTION CLOUDY    72  58  61 E17       30.18F
MONTROSE       FAIR      76  48  37 SE8       30.27R
EAGLE          FAIR      68  54  60 SE7       30.32R
RIFLE          FAIR      71  55  56 S5        30.23R
DELTA          MOCLDY    83  49  30 SW10G21   30.23R
NUCLA          FAIR      66  52  59 NW10      30.35R
$$

COZ017>023-064>068-230400-
...SOUTHWEST COLORADO...

CITY           SKY/WX    TMP DP  RH WIND       PRES   REMARKS
DURANGO        FAIR      76  48  37 NW9       30.27R
CORTEZ         FAIR      76  49  38 N18G33    30.28R
PAGOSA SPRINGS FAIR      74  43  32 NW7       30.36R
TELLURIDE      FAIR      62  51  67 SE3       30.55R
WOLF CREEK PAS FAIR      54  41  62 CALM      30.75S
$$

COZ009-010-012-014-032>034-037-058>063-230400-
...CENTRAL COLORADO...

CITY           SKY/WX    TMP DP  RH WIND       PRES   REMARKS
ASPEN          FAIR      65  50  58 VRB6      30.41R
BUENA VISTA    FAIR      65  45  47 NW13      30.40S
COPPER MTN     FAIR      54  37  54 W3        30.73F
BERTHOUD PASS  FAIR      46  34  61 NW16      30.74F THUNDER
COTTONWOOD PAS FAIR      64  39  39 W10G16    30.56R
GUNNISON       FAIR      61  48  63 NW3       30.45R
KREMMLING      FAIR      64  45  48 S13       30.36S
LEADVILLE      FAIR      54  44  69 NE8       30.56S
MONARCH PASS   MOCLDY    50  43  76 W16       30.82S
SALIDA         FAIR      71  48  43 W6        30.43R
SUNLIGHT       MOCLDY    57  41  54 CALM      30.66S
WILKERSON PASS FAIR      55  36  47 NW7       30.69R
$$

COZ069>075-230400-
...SAN LUIS VALLEY/SANGRE DE CRISTO MOUNTAINS...

CITY           SKY/WX    TMP DP  RH WIND       PRES   REMARKS
ALAMOSA        FAIR      71  48  43 N13       30.34R
LA VETA PASS   MOCLDY    63  37  39 S10       30.56S
SAGUACHE       FAIR      66  46  48 NW13      30.40S
$$

COZ035-036-038>040-230400-
...NORTHERN COLORADO FRONT RANGE...

CITY           SKY/WX    TMP DP  RH WIND       PRES   REMARKS
DENVER INTL AP MOCLDY    83  50  31 W14       30.10F
DMNS CITY PARK   N/A     80  49  33 W13       30.10S
AURORA         MOCLDY    79  50  36 W3        30.13S
FRONT RANGE AP MOCLDY    81  54  39 S8        30.12S
ERIE MUNI ARPT FAIR      81  46  28 N6        30.09R
BOULDER MUN AP FAIR      77  55  47 NW8       30.11S
CENTENNIAL     MOCLDY    76  47  35 SW10      30.14F
BROOMFIELD     NOT AVBL
LONGMONT       FAIR      80  55  43 E9        30.11S
$$

COZ041-046-047-076>085-087-088-230400-
...PIKES PEAK/PALMER DIVIDE AND SOUTHERN FOOTHILLS...

CITY           SKY/WX    TMP DP  RH WIND       PRES   REMARKS
COLO. SPRINGS  MOCLDY    75  56  51 NE5       30.21F
A. F. ACADEMY  FAIR      74  51  45 W6        30.23F
SCHRIEVER AFB  NOT AVBL
ELLICOTT       FAIR     N/A N/A N/A CALM      30.18F
FALCON         FAIR      71  52  52 CALM      30.27S
FORT CARSON    NOT AVBL
LIMON          FAIR      80  47  31 SW10      30.11R
MONUMENT HILL  FAIR      68  52  56 SW8       30.29S
TRINIDAD       NOT AVBL
$$

COZ042>045-048>051-090-091-230400-
...NORTHEAST COLORADO...

CITY           SKY/WX    TMP DP  RH WIND       PRES   REMARKS
GREELEY ARPT   MOCLDY    84  54  34 W18G25    30.07R
AKRON          FAIR      74  59  59 SE12      30.03F
BURLINGTON     FAIR      86  52  30 S16       29.99F
WRAY           NOT AVBL
STERLING       FAIR      82  63  51 E7        29.99R
HOLYOKE        CLOUDY    75  64  69 W21G29    30.05R THUNDER
FORT MORGAN    FAIR      81  58  44 E12       30.03R
$$

COZ086-089-092>099-230400-
...SOUTHEAST COLORADO...

CITY           SKY/WX    TMP DP  RH WIND       PRES   REMARKS
PUEBLO         FAIR      85  57  38 N9        30.04F
LA JUNTA       FAIR      85  51  31 N3        30.01F
LAMAR          FAIR      86  54  33 SW7       29.94S
SPRINGFIELD      N/A     81  56  42 S12       30.04R
$$




USA.gov is the U.S. government's official web portal to all federal, state and local government web resources and services.